| time (UTC) | temp F | wind direction | speed MPH | gust MPH | rain 1hr in | rain 24hr in | rain mn in | humidity % | barometer mb |
| 20260503204503 | 56 | 312 | 8.0 | 18.0 | 0.17 | 0.39 | 0.34 | 93 | 1011.0 |
| 20260503204003 | 56 | 312 | 8.0 | 18.0 | 0.18 | 0.39 | 0.34 | 93 | 1011.0 |
| 20260503203503 | 56 | 311 | 7.0 | 13.0 | 0.19 | 0.39 | 0.34 | 93 | 1011.0 |
| 20260503203003 | 56 | 303 | 7.0 | 11.0 | 0.20 | 0.39 | 0.34 | 93 | 1010.9 |
| 20260503202504 | 56 | 296 | 6.0 | 11.0 | 0.20 | 0.39 | 0.34 | 93 | 1010.8 |
| 20260503202004 | 56 | 297 | 6.0 | 10.0 | 0.26 | 0.39 | 0.34 | 93 | 1010.8 |
| 20260503201503 | 56 | 296 | 7.0 | 10.0 | 0.25 | 0.38 | 0.33 | 92 | 1010.7 |
| 20260503201003 | 56 | 296 | 8.0 | 13.0 | 0.21 | 0.34 | 0.29 | 92 | 1010.7 |
| 20260503200504 | 56 | 309 | 7.0 | 15.0 | 0.17 | 0.30 | 0.25 | 92 | 1010.5 |
| 20260503200003 | 56 | 318 | 7.0 | 15.0 | 0.17 | 0.29 | 0.24 | 92 | 1010.4 |
| 20260503195503 | 56 | 314 | 8.0 | 15.0 | 0.17 | 0.28 | 0.24 | 92 | 1010.3 |
| 20260503195003 | 56 | 307 | 9.0 | 15.0 | 0.09 | 0.21 | 0.17 | 92 | 1010.5 |
| 20260503194525 | 56 | 304 | 9.0 | 15.0 | 0.09 | 0.21 | 0.17 | 92 | 1010.6 |
| 20260503194003 | 56 | 304 | 8.0 | 18.0 | 0.09 | 0.20 | 0.16 | 92 | 1010.6 |
| 20260503193503 | 56 | 305 | 8.0 | 18.0 | 0.10 | 0.20 | 0.15 | 92 | 1010.5 |
| 20260503193004 | 56 | 309 | 9.0 | 13.0 | 0.09 | 0.19 | 0.14 | 92 | 1010.5 |
| 20260503192503 | 56 | 312 | 10.0 | 15.0 | 0.09 | 0.18 | 0.13 | 91 | 1010.4 |
| 20260503192003 | 56 | 315 | 10.0 | 15.0 | 0.03 | 0.13 | 0.08 | 91 | 1010.3 |
| 20260503191503 | 56 | 316 | 10.0 | 15.0 | 0.03 | 0.13 | 0.08 | 91 | 1010.3 |
| 20260503191004 | 56 | 320 | 10.0 | 18.0 | 0.03 | 0.13 | 0.08 | 91 | 1010.4 |
| 20260503190504 | 56 | 327 | 9.0 | 18.0 | 0.03 | 0.13 | 0.08 | 91 | 1010.3 |
| 20260503190003 | 56 | 324 | 9.0 | 17.0 | 0.02 | 0.12 | 0.07 | 91 | 1010.3 |
| 20260503185503 | 56 | 317 | 9.0 | 15.0 | 0.02 | 0.12 | 0.07 | 91 | 1010.3 |
| 20260503185024 | 56 | 311 | 9.0 | 14.0 | 0.03 | 0.12 | 0.07 | 91 | 1010.4 |
| 20260503184503 | 56 | 318 | 10.0 | 17.0 | 0.03 | 0.12 | 0.07 | 91 | 1010.3 |
| 20260503184025 | 56 | 324 | 11.0 | 17.0 | 0.02 | 0.11 | 0.06 | 91 | 1010.3 |
| 20260503183504 | 56 | 325 | 11.0 | 18.0 | 0.01 | 0.09 | 0.05 | 91 | 1010.3 |
| 20260503183004 | 56 | 325 | 10.0 | 18.0 | 0.02 | 0.09 | 0.05 | 91 | 1010.3 |
| 20260503182503 | 55 | 326 | 10.0 | 15.0 | 0.02 | 0.09 | 0.05 | 91 | 1010.3 |
| 20260503182004 | 55 | 328 | 10.0 | 15.0 | 0.02 | 0.09 | 0.05 | 91 | 1010.3 |
| 20260503181505 | 55 | 329 | 9.0 | 15.0 | 0.02 | 0.09 | 0.05 | 91 | 1010.3 |
| 20260503181004 | 55 | 330 | 9.0 | 15.0 | 0.02 | 0.09 | 0.05 | 91 | 1010.3 |
| 20260503180504 | 55 | 329 | 8.0 | 15.0 | 0.02 | 0.09 | 0.05 | 91 | 1010.2 |
| 20260503180004 | 55 | 326 | 8.0 | 13.0 | 0.05 | 0.09 | 0.05 | 91 | 1010.3 |
| 20260503175503 | 55 | 317 | 8.0 | 13.0 | 0.05 | 0.09 | 0.05 | 91 | 1010.4 |
| 20260503175003 | 55 | 317 | 8.0 | 11.0 | 0.04 | 0.09 | 0.04 | 90 | 1010.5 |
| 20260503174503 | 55 | 320 | 8.0 | 13.0 | 0.04 | 0.09 | 0.04 | 90 | 1010.4 |
| 20260503174004 | 56 | 315 | 7.0 | 15.0 | 0.04 | 0.09 | 0.04 | 90 | 1010.4 |
| 20260503173503 | 55 | 311 | 7.0 | 15.0 | 0.04 | 0.09 | 0.04 | 90 | 1010.4 |
| 20260503173004 | 55 | 313 | 8.0 | 13.0 | 0.03 | 0.08 | 0.03 | 90 | 1010.5 |
| 20260503172504 | 55 | 314 | 8.0 | 13.0 | 0.03 | 0.08 | 0.03 | 90 | 1010.5 |
| 20260503172003 | 55 | 313 | 7.0 | 13.0 | 0.03 | 0.08 | 0.03 | 89 | 1010.5 |
| 20260503171504 | 55 | 311 | 8.0 | 11.0 | 0.02 | 0.07 | 0.02 | 89 | 1010.5 |
| 20260503171004 | 55 | 308 | 8.0 | 11.0 | 0.02 | 0.07 | 0.02 | 89 | 1010.6 |
| 20260503170504 | 56 | 315 | 10.0 | 17.0 | 0.02 | 0.07 | 0.02 | 88 | 1010.6 |
| 20260503151004 | 56 | 340 | 9.0 | 17.0 | 0.00 | 0.06 | 0.00 | 88 | 1010.9 |
| 20260503150504 | 56 | 341 | 10.0 | 15.0 | 0.00 | 0.06 | 0.00 | 88 | 1011.0 |
| 20260503131025 | 56 | 307 | 10.0 | 20.0 | 0.00 | 0.06 | 0.06 | 88 | 1011.7 |
| 20260503130504 | 56 | 317 | 9.0 | 20.0 | 0.00 | 0.06 | 0.06 | 89 | 1011.8 |
| 20260503110503 | 58 | 311 | 11.0 | 19.0 | 0.01 | 0.04 | 0.04 | 82 | 1011.2 |
| 20260503090504 | 60 | 285 | 13.0 | 24.0 | 0.00 | 0.03 | 0.03 | 77 | 1010.6 |
| 20260503081503 | 61 | 301 | 14.0 | 24.0 | 0.00 | 0.03 | 0.03 | 73 | 1010.1 |
| 20260503081003 | 61 | 302 | 14.0 | 23.0 | 0.00 | 0.03 | 0.03 | 74 | 1010.0 |
| 20260503080524 | 61 | 300 | 14.0 | 24.0 | 0.00 | 0.03 | 0.03 | 74 | 1010.0 |
| 20260503072503 | 61 | 296 | 13.0 | 24.0 | 0.00 | 0.03 | 0.03 | 75 | 1010.0 |
| 20260503072004 | 61 | 297 | 12.0 | 24.0 | 0.00 | 0.03 | 0.03 | 75 | 1009.9 |
| 20260503071504 | 61 | 300 | 10.0 | 23.0 | 0.02 | 0.03 | 0.03 | 75 | 1009.9 |
| 20260503071003 | 61 | 308 | 10.0 | 19.0 | 0.02 | 0.04 | 0.03 | 76 | 1009.9 |
| 20260503070503 | 60 | 311 | 12.0 | 18.0 | 0.02 | 0.04 | 0.03 | 78 | 1010.0 |
| 20260503055004 | 66 | 297 | 18.0 | 33.0 | 0.00 | 0.14 | 0.02 | 58 | 1009.4 |
| 20260503054504 | 66 | 302 | 17.0 | 33.0 | 0.00 | 0.14 | 0.02 | 56 | 1009.3 |
| 20260503054004 | 67 | 296 | 18.0 | 29.0 | 0.00 | 0.14 | 0.02 | 56 | 1009.3 |
| 20260503053503 | 66 | 294 | 19.0 | 29.0 | 0.00 | 0.14 | 0.02 | 58 | 1009.4 |
| 20260503053003 | 66 | 301 | 21.0 | 34.0 | 0.00 | 0.14 | 0.02 | 56 | 1009.4 |
| 20260503052503 | 66 | 304 | 21.0 | 42.0 | 0.00 | 0.14 | 0.02 | 54 | 1009.4 |
| 20260503052003 | 67 | 295 | 20.0 | 42.0 | 0.00 | 0.14 | 0.02 | 55 | 1009.5 |
| 20260503051504 | 67 | 287 | 20.0 | 34.0 | 0.00 | 0.14 | 0.02 | 56 | 1009.5 |
| 20260503051004 | 67 | 288 | 19.0 | 34.0 | 0.00 | 0.14 | 0.02 | 56 | 1009.5 |
| 20260503050504 | 66 | 296 | 19.0 | 32.0 | 0.00 | 0.15 | 0.02 | 58 | 1009.5 |
| 20260503050005 | 65 | 298 | 19.0 | 32.0 | 0.00 | 0.15 | 0.02 | 59 | 1009.5 |
| 20260503045504 | 65 | 298 | 20.0 | 32.0 | 0.00 | 0.16 | 0.02 | 59 | 1009.5 |
| 20260503045004 | 66 | 304 | 20.0 | 33.0 | 0.00 | 0.16 | 0.02 | 58 | 1009.4 |
| 20260503044504 | 66 | 303 | 19.0 | 33.0 | 0.00 | 0.17 | 0.02 | 58 | 1009.4 |
| 20260503044004 | 66 | 290 | 20.0 | 37.0 | 0.00 | 0.17 | 0.02 | 57 | 1009.4 |
| 20260503043504 | 66 | 283 | 21.0 | 37.0 | 0.00 | 0.19 | 0.02 | 55 | 1009.4 |
| 20260503043004 | 66 | 289 | 22.0 | 37.0 | 0.00 | 0.20 | 0.02 | 57 | 1009.4 |
| 20260503042504 | 66 | 288 | 24.0 | 37.0 | 0.00 | 0.20 | 0.02 | 57 | 1009.5 |
| 20260503042004 | 66 | 286 | 25.0 | 41.0 | 0.00 | 0.20 | 0.02 | 58 | 1009.5 |
| 20260503041504 | 65 | 290 | 22.0 | 41.0 | 0.00 | 0.20 | 0.02 | 59 | 1009.5 |
| 20260503041004 | 66 | 295 | 20.0 | 39.0 | 0.00 | 0.21 | 0.02 | 56 | 1009.7 |
| 20260503040505 | 66 | 292 | 20.0 | 30.0 | 0.00 | 0.21 | 0.02 | 58 | 1009.6 |
| 20260503040025 | 65 | 287 | 20.0 | 34.0 | 0.00 | 0.21 | 0.02 | 59 | 1009.6 |
| 20260503035506 | 65 | 291 | 21.0 | 34.0 | 0.00 | 0.21 | 0.02 | 59 | 1009.7 |
| 20260503035004 | 65 | 291 | 22.0 | 34.0 | 0.00 | 0.21 | 0.02 | 60 | 1009.7 |
| 20260503034504 | 65 | 292 | 22.0 | 34.0 | 0.00 | 0.21 | 0.02 | 57 | 1009.8 |
| 20260503034004 | 66 | 296 | 21.0 | 32.0 | 0.00 | 0.22 | 0.02 | 57 | 1009.9 |
| 20260503033504 | 64 | 291 | 18.0 | 36.0 | 0.00 | 0.23 | 0.02 | 60 | 1009.8 |
| 20260503033004 | 64 | 291 | 17.0 | 36.0 | 0.00 | 0.24 | 0.02 | 62 | 1009.8 |
| 20260503032525 | 64 | 296 | 18.0 | 29.0 | 0.00 | 0.24 | 0.02 | 67 | 1009.9 |
| 20260503032025 | 63 | 305 | 19.0 | 30.0 | 0.00 | 0.24 | 0.02 | 69 | 1010.1 |
| 20260503031504 | 62 | 312 | 17.0 | 30.0 | 0.00 | 0.25 | 0.02 | 69 | 1010.1 |
| 20260503031004 | 63 | 310 | 16.0 | 29.0 | 0.00 | 0.26 | 0.02 | 68 | 1010.0 |
| 20260503030504 | 63 | 308 | 17.0 | 29.0 | 0.00 | 0.26 | 0.02 | 68 | 1009.9 |
| 20260503030025 | 63 | 311 | 17.0 | 29.0 | 0.00 | 0.26 | 0.02 | 67 | 1010.1 |
| 20260503025525 | 63 | 306 | 18.0 | 30.0 | 0.00 | 0.26 | 0.02 | 67 | 1010.2 |
| 20260503025004 | 63 | 303 | 19.0 | 34.0 | 0.00 | 0.26 | 0.02 | 67 | 1010.2 |
| 20260503024504 | 63 | 304 | 19.0 | 37.0 | 0.00 | 0.26 | 0.02 | 66 | 1010.2 |
| 20260503024004 | 63 | 299 | 18.0 | 37.0 | 0.00 | 0.26 | 0.02 | 65 | 1010.2 |
| 20260503023504 | 63 | 299 | 18.0 | 29.0 | 0.00 | 0.26 | 0.02 | 66 | 1010.3 |
| 20260503023004 | 62 | 301 | 19.0 | 29.0 | 0.00 | 0.26 | 0.02 | 67 | 1010.3 |
| 20260503022504 | 63 | 298 | 19.0 | 32.0 | 0.00 | 0.26 | 0.02 | 66 | 1010.3 |
| 20260503022004 | 63 | 297 | 18.0 | 32.0 | 0.00 | 0.26 | 0.02 | 65 | 1010.4 |
| 20260503021504 | 63 | 299 | 17.0 | 32.0 | 0.00 | 0.26 | 0.02 | 65 | 1010.5 |
| 20260503021004 | 62 | 302 | 17.0 | 32.0 | 0.00 | 0.26 | 0.02 | 65 | 1010.4 |
| 20260503020504 | 62 | 299 | 17.0 | 32.0 | 0.00 | 0.26 | 0.02 | 65 | 1010.5 |
| 20260503020004 | 62 | 303 | 17.0 | 32.0 | 0.00 | 0.26 | 0.02 | 66 | 1010.5 |
| 20260503015504 | 62 | 313 | 18.0 | 29.0 | 0.00 | 0.26 | 0.02 | 65 | 1010.5 |
| 20260503015004 | 62 | 312 | 19.0 | 32.0 | 0.00 | 0.26 | 0.02 | 65 | 1010.5 |
| 20260503014504 | 62 | 304 | 20.0 | 36.0 | 0.00 | 0.26 | 0.02 | 64 | 1010.5 |
| 20260503014004 | 63 | 301 | 20.0 | 36.0 | 0.00 | 0.26 | 0.02 | 63 | 1010.5 |
| 20260503013504 | 63 | 299 | 20.0 | 36.0 | 0.00 | 0.26 | 0.02 | 64 | 1010.5 |
| 20260503013004 | 62 | 301 | 20.0 | 36.0 | 0.00 | 0.26 | 0.02 | 65 | 1010.5 |
| 20260503012504 | 62 | 307 | 19.0 | 33.0 | 0.00 | 0.26 | 0.02 | 66 | 1010.4 |
| 20260503012004 | 62 | 309 | 18.0 | 33.0 | 0.00 | 0.26 | 0.02 | 68 | 1010.5 |
| 20260503011504 | 62 | 313 | 18.0 | 33.0 | 0.00 | 0.26 | 0.02 | 67 | 1010.5 |
| 20260503011025 | 62 | 310 | 17.0 | 32.0 | 0.00 | 0.26 | 0.02 | 69 | 1010.5 |
| 20260503010504 | 61 | 311 | 17.0 | 32.0 | 0.00 | 0.26 | 0.02 | 69 | 1010.6 |
| 20260503010004 | 61 | 309 | 18.0 | 32.0 | 0.00 | 0.26 | 0.02 | 69 | 1010.6 |
| 20260503005504 | 61 | 308 | 19.0 | 32.0 | 0.01 | 0.26 | 0.02 | 70 | 1010.7 |
| 20260503005004 | 61 | 310 | 19.0 | 32.0 | 0.01 | 0.26 | 0.02 | 69 | 1010.7 |
| 20260503004504 | 61 | 312 | 18.0 | 32.0 | 0.01 | 0.26 | 0.02 | 69 | 1010.7 |
| 20260503004004 | 62 | 309 | 18.0 | 36.0 | 0.01 | 0.26 | 0.02 | 69 | 1010.8 |
| 20260503003504 | 61 | 304 | 18.0 | 36.0 | 0.01 | 0.26 | 0.02 | 70 | 1010.7 |
| 20260503003004 | 61 | 306 | 17.0 | 32.0 | 0.01 | 0.26 | 0.02 | 71 | 1010.8 |
| 20260503002504 | 61 | 305 | 17.0 | 32.0 | 0.01 | 0.26 | 0.02 | 71 | 1010.8 |
| 20260503002004 | 60 | 301 | 17.0 | 29.0 | 0.01 | 0.26 | 0.02 | 72 | 1010.8 |
| 20260503001504 | 60 | 303 | 16.0 | 29.0 | 0.01 | 0.26 | 0.02 | 73 | 1010.9 |
| 20260503001025 | 60 | 308 | 16.0 | 27.0 | 0.01 | 0.26 | 0.02 | 74 | 1010.8 |
| 20260503000525 | 60 | 313 | 16.0 | 27.0 | 0.01 | 0.26 | 0.02 | 74 | 1010.9 |
| 20260503000025 | 59 | 318 | 16.0 | 27.0 | 0.01 | 0.26 | 0.02 | 75 | 1010.9 |
| 20260502235525 | 59 | 319 | 16.0 | 27.0 | 0.00 | 0.25 | 0.01 | 76 | 1010.9 |
| 20260502235025 | 59 | 324 | 16.0 | 29.0 | 0.00 | 0.25 | 0.01 | 77 | 1011.0 |
| 20260502234504 | 58 | 325 | 14.0 | 29.0 | 0.00 | 0.25 | 0.01 | 77 | 1010.9 |
| 20260502234004 | 58 | 324 | 15.0 | 25.0 | 0.00 | 0.25 | 0.01 | 77 | 1011.0 |
| 20260502233504 | 58 | 321 | 14.0 | 28.0 | 0.00 | 0.25 | 0.01 | 78 | 1010.9 |
| 20260502233004 | 58 | 318 | 14.0 | 28.0 | 0.00 | 0.25 | 0.01 | 78 | 1010.9 |
| 20260502232503 | 57 | 318 | 13.0 | 25.0 | 0.00 | 0.25 | 0.01 | 79 | 1010.9 |
| 20260502232004 | 57 | 323 | 14.0 | 25.0 | 0.00 | 0.25 | 0.01 | 79 | 1010.8 |
| 20260502231504 | 57 | 323 | 14.0 | 25.0 | 0.00 | 0.25 | 0.01 | 79 | 1010.8 |
| 20260502231003 | 57 | 324 | 14.0 | 27.0 | 0.00 | 0.26 | 0.01 | 79 | 1010.8 |
| 20260502230504 | 57 | 321 | 13.0 | 27.0 | 0.00 | 0.26 | 0.01 | 80 | 1010.9 |
| 20260502230004 | 56 | 319 | 12.0 | 23.0 | 0.00 | 0.27 | 0.01 | 80 | 1011.0 |
| 20260502225504 | 56 | 327 | 12.0 | 23.0 | 0.00 | 0.27 | 0.01 | 80 | 1010.9 |
| 20260502225004 | 56 | 330 | 11.0 | 19.0 | 0.00 | 0.27 | 0.01 | 82 | 1010.9 |
| 20260502224504 | 56 | 332 | 11.0 | 19.0 | 0.00 | 0.27 | 0.01 | 82 | 1010.9 |
| 20260502224004 | 56 | 335 | 12.0 | 18.0 | 0.00 | 0.27 | 0.01 | 83 | 1010.9 |
| 20260502223504 | 55 | 339 | 12.0 | 18.0 | 0.00 | 0.27 | 0.01 | 83 | 1010.9 |
| 20260502223004 | 55 | 344 | 12.0 | 19.0 | 0.00 | 0.27 | 0.01 | 83 | 1010.9 |
| 20260502222504 | 55 | 347 | 12.0 | 19.0 | 0.00 | 0.27 | 0.01 | 84 | 1010.9 |
| 20260502222004 | 55 | 350 | 11.0 | 18.0 | 0.00 | 0.27 | 0.01 | 84 | 1010.8 |
| 20260502221504 | 55 | 351 | 11.0 | 18.0 | 0.00 | 0.27 | 0.01 | 84 | 1010.8 |
| 20260502221004 | 55 | 350 | 11.0 | 17.0 | 0.00 | 0.27 | 0.01 | 84 | 1010.8 |
| 20260502220504 | 55 | 348 | 10.0 | 15.0 | 0.00 | 0.27 | 0.01 | 85 | 1010.8 |
| 20260502220004 | 55 | 351 | 10.0 | 15.0 | 0.00 | 0.27 | 0.01 | 85 | 1010.7 |
| 20260502215504 | 55 | 352 | 10.0 | 15.0 | 0.00 | 0.27 | 0.01 | 85 | 1010.6 |
| 20260502215003 | 55 | 349 | 11.0 | 17.0 | 0.00 | 0.27 | 0.01 | 85 | 1010.6 |
| 20260502214504 | 55 | 350 | 11.0 | 17.0 | 0.00 | 0.27 | 0.01 | 86 | 1010.5 |
| 20260502214004 | 54 | 348 | 11.0 | 18.0 | 0.00 | 0.27 | 0.01 | 86 | 1010.5 |
| 20260502213503 | 54 | 347 | 11.0 | 20.0 | 0.00 | 0.27 | 0.01 | 86 | 1010.5 |
| 20260502213004 | 55 | 344 | 11.0 | 20.0 | 0.00 | 0.27 | 0.01 | 86 | 1010.5 |
| 20260502212504 | 55 | 343 | 11.0 | 17.0 | 0.00 | 0.27 | 0.01 | 86 | 1010.4 |
| 20260502212004 | 55 | 345 | 10.0 | 19.0 | 0.00 | 0.27 | 0.01 | 86 | 1010.3 |
| 20260502211504 | 55 | 345 | 10.0 | 19.0 | 0.00 | 0.27 | 0.01 | 86 | 1010.1 |
| 20260502211004 | 55 | 345 | 11.0 | 15.0 | 0.00 | 0.27 | 0.01 | 86 | 1010.1 |
| 20260502210503 | 55 | 345 | 11.0 | 19.0 | 0.00 | 0.27 | 0.01 | 86 | 1010.0 |
| 20260502210004 | 55 | 346 | 10.0 | 19.0 | 0.00 | 0.27 | 0.01 | 85 | 1010.0 |
| 20260502205504 | 55 | 350 | 10.0 | 17.0 | 0.00 | 0.27 | 0.01 | 85 | 1009.9 |
| 20260502205025 | 55 | 352 | 10.0 | 17.0 | 0.00 | 0.27 | 0.01 | 85 | 1009.8 |
| 20260502204525 | 55 | 351 | 11.0 | 17.0 | 0.00 | 0.27 | 0.01 | 85 | 1009.8 |